Notices

What’s New in latest Release from January 14th 2021:

·       In Historical Hourly Data Report, users can switch between Local Standard Time (LST) and Universal Time Coordinates (UTC) time.

·       In Historical Hourly Data Report, we have an addition of a new column to display hourly precipitation data for the stations where the data are available, from 2001 onwards.

·       Expanded the Search Options of the Canadian Historical Weather Radar, users now able to select 24 hours (1 image every hour) image viewing duration.

Please note that the IDF dataset is available through this link: Intensity-Duration-Frequency (IDF) Files .

Hourly Data Report for January 10, 2005

SHERBROOKE A
QUEBEC

45°26'00.000" N
71°41'00.000" W
241.40 m
7028124
71610
YSC

Download Data

Hourly Data (January 2005)
Hourly Data Report for January 10, 2005
TIME
LST
Temp Definition
°C
Dew Point Definition
°C
Rel Hum Definition
%
Precip. Amount Definition
mm

Wind Dir Definition
10's deg

Wind Spd Definition
km/h
Visibility Definition
km
Stn Press Definition
kPa
Hmdx Definition


Wind Chill Definition


Weather Definition


00:00 -3.0 -6.6 76   19 13 15.0 99.17   -8  
01:00 -2.9 -6.6 76   17 13 15.0 99.05   -8  
02:00 -2.8 -6.4 76   19 17 15.0 98.97   -8  
03:00 -3.1 -6.3 79   17 7 15.0 98.81   -6  
04:00 -3.0 -6.4 77   19 11 15.0 98.62   -7  
05:00 -2.9 -6.5 76   16 15 15.0 98.44   -8  
06:00 -2.8 -6.5 76   14 19 15.0 98.25   -9  
07:00 -2.8 -6.4 76   14 9 8.0 98.18   -6 Rain
08:00 -2.8 -4.8 86   18 9 3.2 98.13   -6 Snow
09:00 -2.2 -4.6 84   20 7 6.4 98.06   -5 Snow
10:00 -1.5 -3.5 86   21 15 2.4 98.02   -6 Snow
11:00 -0.9 -3.2 84   22 17 4.8 97.94   -6 Snow
12:00 -0.5 -2.8 84   22 19 9.7 97.84   -6 Snow
13:00 0.1 -2.3 84   23 15 19.3 97.82     Cloudy
14:00 1.5 -2.7 74   25 26 24.1 97.82     Cloudy
15:00 1.4 -2.5 75   27 33 19.3 97.87     Snow Showers
16:00 -1.5 -4.7 79   28 37 19.3 98.03   -9 Snow Showers
17:00 -1.6 -7.7 63   27 28 19.3 98.19   -8 Snow Showers
18:00 -1.6 -7.5 64   27 30 15.0 98.26   -9  
19:00 -1.7 -7.4 65   27 28 15.0 98.28   -8  
20:00 -3.2 -6.0 81   28 35 1.3 98.33   -11 Snow
21:00 -3.6 -8.0 71   29 30 8.0 98.43   -11 Snow
22:00 -4.3 -11.1 59   30 30 9.7 98.54   -12 Snow
23:00 -5.5 -12.2 59   29 35 6.4 98.65   -14 Snow

Notes on Data Quality.

Legend

  • E = Estimated
  • M = Missing
  • NA = Not Available*
  • [empty] = Indicates an unobserved value
Date modified: